Starlink 11306

operational
NORAD ID: 61254 Int'l Des: 2024-175 Owner: SPXS Country: US Constellation: starlink
LEOCIRCULAR

About Starlink 11306

Description loading...

Live Position

Loading 3D Globe...

Upcoming Passes

Altitude History

Altitude vs Time

uPlot chart will show altitude changes over time

Two-Line Element Set

1 61254U 24175M 26035.51180557 -.00011730 00000-0 -91906-4 0 9998
2 61254 53.1606 219.9551 0000966 108.1030 252.0093 15.69760342 79355
Epoch: Feb 4, 2026 • Age: 8 hours

Current Status

Altitude 360.0 km
Velocity 7.70 km/s
Sub-Earth Point 19.99°N, 158.64°E
Launch Date Sep 25, 2024
Age 1.3 years
Type internet

Technical Details

Classification Payload
Mass 960.00 kg
Dry Mass 910.00 kg
Total Mass 960.00 kg
Length 0.30 m
Diameter 4.10 m
Span 29.00 m
Shape Box + pan
Manufacturer SPXS
Bus Type Starlink V2MD
Phase Status In Orbit
Owner/State SPXS/US

Large Constellations

Loading constellations...